Location: Augustenthal
(51.7167°N, 10.2833°E)
Time: 04:47:35
(UTC+00:00)

USA 215 - Pass Details

Date: 18 May 2021
Orbit: 1101 x 1107 km, 123.0° (Epoch: 10 June)

Event Time Altitude Azimuth Distance (km) Brightness Sun altitude
Rises 19:54:36 0° 66° (ENE) 3,924 5.9 -6.2°
Reaches altitude 10° 19:57:05 10° 64° (ENE) 2,966 5.3 -6.5°
Maximum altitude 20:03:34 67° 344° (NNW) 1,189 3.7 -7.2°
Drops below altitude 10° 20:10:03 10° 263° (W) 2,964 6.1 -7.9°
Sets 20:12:32 0° 261° (W) 3,922 6.7 -8.2°
